Location: Olda
(45.8833°N, 9.5500°E)
Time: 20:53:06
(UTC+00:00)

OBJECT-B - Pass Details

Date: 03 March 2021
Orbit: 414 x 427 km, 97.0° (Epoch: 11 April)

Event Time Altitude Azimuth Distance (km) Brightness Sun altitude
Exits shadow 18:05:12 11° 59° (ENE) 1,432 2.9 -10.2°
Drops below altitude 10° 18:06:02 10° 44° (NE) 1,514 3.2 -10.3°
Sets 18:09:09 0° 10° (N) 2,381 4.5 -10.9°
